Simultaneous Nadir Overpasses (SNOs) Predictions

Prediction of SNOs over PacNW region [( 10.00, 139.50) to ( 22.70, 165.60)] between AQUA and NPP Satellites:

Table of predicted SNOs over PacNW region for the next 30.0 days since TLE Epoch: 7/29/2016
Index Date (AQUA) Time (AQUA) AQUA Lat,Lon Date (NPP) Time (NPP) NPP Lat,Lon Distance(km) Time Diff (sec)
1 08/01/2016 15:59:00 22.60, 147.48 08/01/2016 16:02:28 23.30, 144.61 304.80 208
2 08/04/2016 02:41:57 22.65, 159.89 08/04/2016 02:38:28 26.98, 157.38 544.96 209
3 08/09/2016 15:09:33 22.63, 159.84 08/09/2016 15:11:42 23.18, 157.27 270.52 129
4 08/12/2016 03:31:22 22.64, 147.53 08/12/2016 03:27:53 22.55, 145.84 173.70 209
5 08/17/2016 15:58:58 22.61, 147.48 08/17/2016 16:02:22 23.23, 144.61 301.90 204
6 08/20/2016 02:41:54 22.65, 159.89 08/20/2016 02:38:25 27.25, 157.33 573.85 209
7 08/25/2016 15:09:29 22.59, 159.83 08/25/2016 15:11:34 23.16, 157.29 268.59 125




NCC Satellite Simultaneous Nadir Overpasses (SNOs) Prediction Service
